[[{"header":{"parameterUnit":"m.s-1","parameterCategory":2,"la1":30.2991,"la2":30.254,"lo1":-89.0895,"lo2":-89.0444,"dy":0.0017,"dx":0.0017,"nx":28,"ny":28,"refTime":"2024-07-15T21:00:00:Z","depth":"0","parameterNumber":2,"parameterNumberName":"U-component_of_CURRENTS"},"data":[0,0,0,0,0,0,0,0,0,0,0,0,0,0,0,0,0,0,0,0,0,0,0,0,0,0,0,0,0,0,0,0,0,0,0,0,0,0,0,0,0,0,0,0,0,0,0,0,0,0,0,0,0,0,0,0,0,0,-0.0512,-0.0513,0,-0.0572,-0.0573,-0.0574,-0.061,-0.061,-0.0609,-0.0609,-0.0652,-0.0653,-0.0654,0,0,0,0,0,0,0,0,0,0,0,0,0,-0.0544,-0.0542,-0.0512,-0.0513,-0.0513,-0.0572,-0.0573,-0.0574,-0.061,-0.061,-0.0609,-0.0609,-0.0651,-0.0653,-0.0654,0,0,0,0,0,0,0,0,0,0,0,0,0,-0.0562,-0.0542,-0.0512,-0.0536,-0.0538,-0.0571,-0.0573,-0.0574,-0.061,-0.061,-0.0609,-0.0609,-0.0651,-0.0652,-0.0654,-0.0669,0,0,-0.066,-0.0661,0,0,0,0,0,0,0,0,-0.0561,-0.0561,-0.0532,-0.0534,-0.0537,-0.058,-0.0599,-0.0604,-0.061,-0.0586,-0.0609,-0.0609,-0.0624,-0.0628,-0.0645,-0.0671,-0.0673,-0.066,-0.0661,-0.0662,-0.0663,0,0,0,0,0,0,0,-0.0559,-0.0559,-0.0539,-0.0532,-0.0535,-0.0582,-0.0584,-0.0601,-0.0607,-0.0588,-0.059,-0.0592,-0.0626,-0.0643,-0.0646,-0.0674,-0.066,-0.0662,-0.0663,-0.0664,-0.0653,-0.0652,0,0,0,0,0,0,-0.0539,-0.0557,-0.0537,-0.0541,-0.0545,-0.0581,-0.0583,-0.0569,-0.0608,-0.0613,-0.0592,-0.0593,-0.064,-0.0644,-0.0647,-0.0625,-0.0662,-0.0664,-0.0665,-0.0654,-0.0653,-0.0651,0,0,0,0,0,0,-0.054,-0.0536,-0.0535,-0.0549,-0.0552,-0.0579,-0.0564,-0.057,-0.0584,-0.061,-0.0615,-0.0598,-0.064,-0.0645,-0.0643,-0.0628,-0.0665,-0.0666,-0.0656,-0.0654,-0.0652,-0.0606,0,0,0,0,0,0,-0.054,-0.0536,-0.0515,-0.0547,-0.055,-0.0545,-0.0564,-0.0572,-0.0584,-0.0586,-0.0617,-0.0622,-0.064,-0.064,-0.0645,-0.0631,-0.0668,-0.0658,-0.0655,-0.0652,-0.0609,-0.0603,-0.0597,0,0,0,0,0,-0.0541,-0.0504,-0.0513,-0.0511,-0.0521,-0.0544,-0.055,-0.0573,-0.0584,-0.0586,-0.0597,-0.062,-0.0626,-0.064,-0.0647,-0.0633,-0.0659,-0.0656,-0.0653,-0.0612,-0.0604,-0.0597,0,0,0,0,0,0,-0.0507,-0.0505,-0.0515,-0.048,-0.0508,-0.0549,-0.0546,-0.057,-0.0584,-0.0579,-0.061,-0.0614,-0.0606,-0.0621,-0.0636,-0.0618,-0.0644,-0.0642,-0.0611,-0.0604,-0.0598,-0.0574,-0.0669,0,0,0,0,0,-0.0489,-0.0462,-0.0487,-0.0463,-0.0471,-0.0512,-0.0522,-0.0541,-0.056,-0.0567,-0.0584,-0.0594,-0.0599,-0.0603,-0.061,-0.0607,-0.0584,-0.0598,-0.0591,-0.0586,-0.0568,-0.0529,-0.0518,-0.0641,-0.0641,-0.0641,0,0,-0.0478,-0.0467,-0.0458,-0.0455,-0.0478,-0.048,-0.0518,-0.0527,-0.0526,-0.0567,-0.0558,-0.0575,-0.0592,-0.0583,-0.058,-0.0594,-0.0532,-0.0582,-0.0578,-0.0562,-0.0525,-0.0513,-0.0502,-0.0639,-0.0639,-0.0639,0,0,-0.0445,-0.0427,-0.0404,-0.0411,-0.0426,-0.045,-0.0451,-0.0483,-0.0492,-0.0493,-0.0514,-0.0511,-0.0531,-0.0532,-0.0538,-0.05,-0.0501,-0.0509,-0.0462,-0.0425,-0.0415,-0.0405,-0.0332,-0.0316,-0.0507,-0.0507,-0.0506,0,-0.0429,-0.0398,-0.0406,-0.0384,-0.039,-0.0432,-0.0428,-0.0437,-0.0463,-0.0464,-0.0476,-0.0481,-0.05,-0.0483,-0.0469,-0.0486,-0.0455,-0.0495,-0.0417,-0.0407,-0.0398,-0.0326,-0.0309,-0.0504,-0.0504,-0.0505,-0.0505,0,-0.0391,-0.0362,-0.0349,-0.0333,-0.0342,-0.0342,-0.0361,-0.0358,-0.0376,-0.0393,-0.038,-0.0397,-0.0398,-0.0406,-0.043,-0.0382,-0.0375,-0.0415,-0.0437,-0.0383,-0.031,-0.0293,-0.05,-0.0501,-0.0502,-0.0503,0,0,-0.0369,-0.0331,-0.0325,-0.0314,-0.0315,-0.0322,-0.0303,-0.0314,-0.0296,-0.0307,-0.0288,-0.0294,-0.0307,-0.0312,-0.0337,-0.0308,-0.0218,-0.0333,-0.0332,-0.026,-0.0102,-0.0042,-0.0019,-0.0252,-0.025,-0.0248,-0.0065,0,-0.0347,-0.0296,-0.0288,-0.0262,-0.0252,-0.0264,-0.0245,-0.0249,-0.0255,-0.0236,-0.0246,-0.0237,-0.0271,-0.0271,-0.0243,-0.0243,-0.0177,-0.0261,-0.0164,-0.0159,-0.0115,0.0001,0.0071,0.0243,-0.0049,-0.0046,-0.0044,0,-0.0319,-0.0289,-0.0257,-0.0227,-0.0224,-0.0212,-0.0197,-0.0183,-0.0163,-0.0161,-0.0146,-0.0162,-0.0128,-0.0164,-0.0083,-0.0139,-0.0096,-0.0083,-0.0076,-0.0025,-0.007,0.0137,0.0284,0.0364,-0.0019,-0.0021,-0.0023,0,-0.0315,-0.0268,-0.0245,-0.0234,-0.0204,-0.0192,-0.0183,-0.0164,-0.0145,-0.0112,-0.0093,-0.0066,-0.0044,-0.0003,0.0022,-0.0026,0.0125,0.0058,0.0175,0.018,0.0261,0.0269,0.0497,0.0166,0.0166,0.0165,0.0165,0,-0.029,-0.0264,-0.0237,-0.0217,-0.0189,-0.0177,-0.0142,-0.0122,-0.0087,-0.0049,-0.0053,-0.0008,-0.0005,0.0059,0.0079,0.0198,0.0184,0.0234,0.0243,0.0282,0.0289,0.0375,0.0345,0.0172,0.0171,0.0169,0.0168,0,-0.0277,-0.0256,-0.0224,-0.0192,-0.0182,-0.0162,-0.0123,-0.0089,-0.0056,-0.0001,0.0011,0.0055,0.0151,0.0186,0.027,0.0293,0.0382,0.0427,0.0494,0.0508,0.0668,0.0635,0.0662,0.0585,0.0598,0.06,0.0603,0,-0.026,-0.0242,-0.0211,-0.0193,-0.0175,-0.0143,-0.0114,-0.0079,-0.0044,0.0042,0.0073,0.0176,0.0256,0.0421,0.0497,0.0614,0.0527,0.0737,0.0659,0.0746,0.0716,0.0518,0.0433,0.08,0.0804,0.0807,0.081,0,-0.0231,-0.0225,-0.0195,-0.0165,-0.0138,-0.0102,-0.0061,-0.003,0.0027,0.0083,0.0185,0.0258,0.0439,0.0592,0.0742,0.0801,0.0702,0.0804,0.0877,0.0906,0.0723,0.063,0.0624,0.0837,0.0834,0.0832,0.0831,0.0829,-0.0206,-0.0183,-0.0151,-0.0115,-0.0096,-0.0053,-0.0003,0.0043,0.0116,0.0231,0.0273,0.0433,0.0639,0.0863,0.0935,0.114,0.0911,0.1171,0.1135,0.0933,0.083,0.0907,0.1119,0.1118,0.1118,0.1117,0.1116,0,-0.0157,-0.0125,-0.0099,-0.0051,-0.0023,-0.0022,0.0046,0.0112,0.0211,0.032,0.0426,0.07,0.0931,0.1112,0.1374,0.1466,0.1276,0.1486,0.1264,0.1163,0.1291,0.1278,0.1556,0.1556,0.1555,0.1555,0.1555,0.1555,-0.0119,-0.0067,-0.0046,0.0021,0.0041,0.0106,0.0154,0.0243,0.0337,0.0538,0.0703,0.0821,0.1081,0.1449,0.1711,0.1719,0.1542,0.1524,0.138,0.1585,0.1552,0.1521,0.1509,0.183,0.183,0.1187,0.1183,0.118]},{"header":{"parameterUnit":"m.s-1","parameterCategory":2,"la1":30.2991,"la2":30.254,"lo1":-89.0895,"lo2":-89.0444,"dy":0.0017,"dx":0.0017,"nx":28,"ny":28,"refTime":"2024-07-15T21:00:00:Z","depth":"0","parameterNumber":3,"parameterNumberName":"V-component_of_CURRENTS"},"data":[0,0,0,0,0,0,0,0,0,0,0,0,0,0,0,0,0,0,0,0,0,0,0,0,0,0,0,0,0,0,0,0,0,0,0,0,0,0,0,0,0,0,0,0,0,0,0,0,0,0,0,0,0,0,0,0,0,0,-0.1041,-0.1042,0,-0.1067,-0.1067,-0.1066,-0.1054,-0.1055,-0.1055,-0.1055,-0.105,-0.105,-0.1049,0,0,0,0,0,0,0,0,0,0,0,0,0,-0.0937,-0.0939,-0.1041,-0.1042,-0.1044,-0.1067,-0.1067,-0.1066,-0.1054,-0.1055,-0.1055,-0.1055,-0.105,-0.105,-0.1049,0,0,0,0,0,0,0,0,0,0,0,0,0,-0.0964,-0.0939,-0.1041,-0.1049,-0.1051,-0.1067,-0.1067,-0.1066,-0.1054,-0.1055,-0.1055,-0.1056,-0.105,-0.105,-0.1049,-0.1032,0,0,-0.1047,-0.1046,0,0,0,0,0,0,0,0,-0.0963,-0.0966,-0.1046,-0.1049,-0.1051,-0.1068,-0.1029,-0.1057,-0.1054,-0.1041,-0.1055,-0.1056,-0.106,-0.1059,-0.1046,-0.1032,-0.1032,-0.1047,-0.1046,-0.1046,-0.1046,0,0,0,0,0,0,0,-0.0961,-0.0965,-0.104,-0.1048,-0.1051,-0.1038,-0.1041,-0.1033,-0.1037,-0.1042,-0.1044,-0.1065,-0.106,-0.1047,-0.1046,-0.1032,-0.1047,-0.1046,-0.1045,-0.1045,-0.1056,-0.1057,0,0,0,0,0,0,-0.0983,-0.0964,-0.1039,-0.1042,-0.102,-0.104,-0.1043,-0.1053,-0.1038,-0.104,-0.1064,-0.1065,-0.1048,-0.1047,-0.1046,-0.1051,-0.1046,-0.1045,-0.1045,-0.1056,-0.1057,-0.1057,0,0,0,0,0,0,-0.098,-0.0988,-0.1038,-0.1013,-0.102,-0.1043,-0.1052,-0.1053,-0.1041,-0.1058,-0.1057,-0.1054,-0.1049,-0.1047,-0.1048,-0.105,-0.1045,-0.1044,-0.1055,-0.1056,-0.1057,-0.1046,0,0,0,0,0,0,-0.0976,-0.0987,-0.0982,-0.1014,-0.1023,-0.1045,-0.1053,-0.1054,-0.1059,-0.1059,-0.1048,-0.1048,-0.1049,-0.1049,-0.1047,-0.1049,-0.1043,-0.1054,-0.1055,-0.1057,-0.1045,-0.1046,-0.1047,0,0,0,0,0,-0.0972,-0.0968,-0.0981,-0.099,-0.1021,-0.1046,-0.1046,-0.1057,-0.1058,-0.1047,-0.1052,-0.1048,-0.1057,-0.1048,-0.1046,-0.1048,-0.1053,-0.1055,-0.1056,-0.1045,-0.1046,-0.1047,0,0,0,0,0,0,-0.0915,-0.0969,-0.0983,-0.0993,-0.102,-0.1048,-0.1051,-0.1053,-0.1045,-0.105,-0.1048,-0.1048,-0.1053,-0.1054,-0.1045,-0.106,-0.1058,-0.106,-0.105,-0.1052,-0.1053,-0.1034,-0.1043,0,0,0,0,0,-0.0905,-0.0917,-0.0967,-0.0973,-0.0996,-0.1019,-0.1027,-0.1039,-0.1051,-0.1047,-0.1043,-0.105,-0.1057,-0.1057,-0.1062,-0.1059,-0.1046,-0.1064,-0.1065,-0.1066,-0.1052,-0.104,-0.1038,-0.1063,-0.1063,-0.1063,0,0,-0.0884,-0.0919,-0.0922,-0.0962,-0.0989,-0.1007,-0.1022,-0.1045,-0.1042,-0.1049,-0.1035,-0.105,-0.1059,-0.1064,-0.1067,-0.1064,-0.1055,-0.1068,-0.1069,-0.1054,-0.1041,-0.1038,-0.1036,-0.1064,-0.1064,-0.1064,0,0,-0.0867,-0.0887,-0.0901,-0.0925,-0.0979,-0.0994,-0.1002,-0.1032,-0.1028,-0.1027,-0.1041,-0.1052,-0.1052,-0.1061,-0.1066,-0.1073,-0.1062,-0.1087,-0.1071,-0.106,-0.1057,-0.1054,-0.1037,-0.1033,-0.1086,-0.1086,-0.1086,0,-0.0845,-0.0867,-0.0904,-0.0932,-0.0947,-0.0989,-0.0999,-0.1003,-0.102,-0.102,-0.1024,-0.1039,-0.1046,-0.1054,-0.1064,-0.1072,-0.1064,-0.1062,-0.1058,-0.1055,-0.1052,-0.1036,-0.1031,-0.1085,-0.1086,-0.1086,-0.1086,0,-0.085,-0.0862,-0.0878,-0.0922,-0.0932,-0.0953,-0.0983,-0.0984,-0.099,-0.1001,-0.1008,-0.102,-0.1028,-0.1042,-0.1051,-0.1049,-0.105,-0.106,-0.1047,-0.1049,-0.1032,-0.1027,-0.1085,-0.1085,-0.1085,-0.1085,0,0,-0.0818,-0.0871,-0.0875,-0.0883,-0.0929,-0.0937,-0.0942,-0.0957,-0.0958,-0.0973,-0.0962,-0.0987,-0.1004,-0.1011,-0.1031,-0.1024,-0.1003,-0.1033,-0.1033,-0.1003,-0.0973,-0.0982,-0.0977,-0.1013,-0.1012,-0.1012,-0.0969,0,-0.0814,-0.0849,-0.0868,-0.0871,-0.0889,-0.0912,-0.0905,-0.092,-0.0934,-0.0934,-0.0957,-0.0962,-0.099,-0.0995,-0.0995,-0.1003,-0.099,-0.1013,-0.0987,-0.0986,-0.0983,-0.0972,-0.0953,-0.0914,-0.0964,-0.0964,-0.0963,0,-0.0815,-0.0834,-0.0844,-0.0847,-0.0856,-0.0852,-0.0852,-0.0855,-0.0878,-0.0887,-0.0907,-0.0929,-0.0934,-0.095,-0.0947,-0.0963,-0.0961,-0.0963,-0.0962,-0.0966,-0.0986,-0.0922,-0.0903,-0.0835,-0.0956,-0.0956,-0.0957,0,-0.0778,-0.0808,-0.0807,-0.0814,-0.0831,-0.0819,-0.0823,-0.0843,-0.0842,-0.086,-0.0862,-0.0883,-0.0881,-0.0887,-0.0905,-0.0922,-0.089,-0.0913,-0.0916,-0.0917,-0.0891,-0.0891,-0.0788,-0.0891,-0.0892,-0.0892,-0.0892,0,-0.0762,-0.0757,-0.0789,-0.0786,-0.0766,-0.0788,-0.0769,-0.0782,-0.0797,-0.0796,-0.0836,-0.083,-0.0864,-0.0863,-0.088,-0.0881,-0.0869,-0.09,-0.0903,-0.0889,-0.089,-0.0823,-0.0805,-0.089,-0.089,-0.0891,-0.0891,0,-0.0715,-0.0746,-0.0737,-0.0748,-0.0749,-0.0731,-0.0732,-0.0728,-0.0749,-0.0744,-0.0745,-0.0777,-0.0782,-0.0813,-0.0816,-0.0843,-0.0784,-0.0846,-0.0828,-0.083,-0.0788,-0.0772,-0.0653,-0.0514,-0.0842,-0.0842,-0.0842,0,-0.0689,-0.0688,-0.0697,-0.0692,-0.0692,-0.068,-0.0673,-0.0695,-0.0697,-0.0709,-0.0702,-0.0712,-0.0712,-0.0729,-0.079,-0.0814,-0.074,-0.0801,-0.0833,-0.0766,-0.0749,-0.0707,-0.0593,-0.0792,-0.0792,-0.0791,-0.0791,0,-0.0629,-0.064,-0.0634,-0.0632,-0.0621,-0.061,-0.0609,-0.0604,-0.0629,-0.0619,-0.0615,-0.0612,-0.0665,-0.0685,-0.0736,-0.0764,-0.0701,-0.0795,-0.0722,-0.0693,-0.0641,-0.0516,-0.0836,-0.0787,-0.0788,-0.0788,-0.0788,-0.0788,-0.0571,-0.0558,-0.0568,-0.0558,-0.0554,-0.0545,-0.0522,-0.0528,-0.051,-0.0488,-0.0521,-0.0484,-0.0535,-0.062,-0.068,-0.0713,-0.067,-0.0687,-0.0669,-0.0629,-0.0499,-0.0813,-0.0777,-0.0777,-0.0778,-0.0778,-0.0778,0,-0.0511,-0.0514,-0.05,-0.0489,-0.047,-0.049,-0.0482,-0.0452,-0.0418,-0.0388,-0.037,-0.0323,-0.0376,-0.0453,-0.0527,-0.0545,-0.0508,-0.0534,-0.0454,-0.0335,-0.0618,-0.062,-0.0553,-0.0553,-0.0553,-0.0553,-0.0553,-0.0554,-0.0478,-0.0461,-0.0465,-0.0422,-0.0411,-0.0368,-0.0358,-0.0322,-0.0294,-0.0188,-0.0124,-0.0092,-0.0008,-0.0214,-0.0301,-0.0364,-0.0198,-0.0303,-0.0157,-0.0386,-0.0398,-0.0409,-0.0404,-0.0293,-0.0293,0.0184,0.0188,0.019]}],[{"header":{"parameterUnit":"m.s-1","parameterCategory":2,"la1":30.2991,"la2":30.254,"lo1":-89.0895,"lo2":-89.0444,"dy":0.0017,"dx":0.0017,"nx":28,"ny":28,"refTime":"2024-07-15T21:00:00:Z","depth":"2","parameterNumber":2,"parameterNumberName":"U-component_of_CURRENTS"},"data":[0,0,0,0,0,0,0,0,0,0,0,0,0,0,0,0,0,0,0,0,0,0,0,0,0,0,0,0,0,0,0,0,0,0,0,0,0,0,0,0,0,0,0,0,0,0,0,0,0,0,0,0,0,0,0,0,0,0,-0.2424,-0.2424,0,-0.2357,-0.2356,-0.2355,-0.2344,-0.2345,-0.2346,-0.2347,-0.2307,-0.2305,-0.2304,0,0,0,0,0,0,0,0,0,0,0,0,0,-0.2493,-0.2492,-0.2424,-0.2423,-0.2423,-0.2357,-0.2356,-0.2355,-0.2344,-0.2345,-0.2346,-0.2347,-0.2308,-0.2306,-0.2304,0,0,0,0,0,0,0,0,0,0,0,0,0,-0.2447,-0.2492,-0.2424,-0.2411,-0.2409,-0.2357,-0.2356,-0.2355,-0.2344,-0.2345,-0.2346,-0.2347,-0.2308,-0.2306,-0.2303,-0.2265,0,0,-0.2295,-0.2294,0,0,0,0,0,0,0,0,-0.245,-0.2444,-0.2413,-0.2412,-0.241,-0.2362,-0.2366,-0.2327,-0.2344,-0.2367,-0.2347,-0.2348,-0.2328,-0.2324,-0.2306,-0.2263,-0.2261,-0.2295,-0.2294,-0.2292,-0.2292,0,0,0,0,0,0,0,-0.2453,-0.2447,-0.2396,-0.2413,-0.241,-0.2391,-0.2386,-0.2358,-0.2341,-0.2365,-0.2364,-0.2359,-0.2327,-0.2309,-0.2305,-0.2261,-0.2295,-0.2293,-0.2291,-0.229,-0.2151,-0.2149,0,0,0,0,0,0,-0.2466,-0.245,-0.2398,-0.2394,-0.2435,-0.2389,-0.2384,-0.2375,-0.2341,-0.2337,-0.2358,-0.2359,-0.2313,-0.2308,-0.2304,-0.2238,-0.2292,-0.229,-0.2289,-0.2153,-0.215,-0.2148,0,0,0,0,0,0,-0.2467,-0.2461,-0.2401,-0.2422,-0.2413,-0.2388,-0.2377,-0.2373,-0.2352,-0.2336,-0.2333,-0.2342,-0.2313,-0.2308,-0.2264,-0.2237,-0.2289,-0.2286,-0.2155,-0.2152,-0.2149,-0.2118,0,0,0,0,0,0,-0.2469,-0.2462,-0.245,-0.2423,-0.2413,-0.2364,-0.2376,-0.2371,-0.2348,-0.2348,-0.2321,-0.2319,-0.2314,-0.2267,-0.2261,-0.2235,-0.2284,-0.2158,-0.2154,-0.215,-0.2122,-0.2114,-0.2108,0,0,0,0,0,-0.2472,-0.2445,-0.245,-0.2443,-0.24,-0.2363,-0.2355,-0.234,-0.2346,-0.2327,-0.2305,-0.2319,-0.2238,-0.2263,-0.2256,-0.2229,-0.216,-0.2155,-0.215,-0.2125,-0.2116,-0.2108,0,0,0,0,0,0,-0.2462,-0.2441,-0.2445,-0.2413,-0.2391,-0.2362,-0.2334,-0.2333,-0.2299,-0.2296,-0.2291,-0.2285,-0.224,-0.2229,-0.2258,-0.2173,-0.2201,-0.2194,-0.2184,-0.2175,-0.2168,-0.2152,-0.2282,0,0,0,0,0,-0.2457,-0.243,-0.2417,-0.2385,-0.2376,-0.2356,-0.2337,-0.2329,-0.2302,-0.2288,-0.2272,-0.2244,-0.2212,-0.2192,-0.2165,-0.2114,-0.2081,-0.209,-0.2083,-0.2077,-0.2057,-0.1991,-0.1976,-0.2132,-0.2132,-0.2132,0,0,-0.2445,-0.2426,-0.2412,-0.2381,-0.236,-0.2324,-0.2345,-0.2309,-0.2275,-0.2288,-0.223,-0.2222,-0.2193,-0.2141,-0.2119,-0.213,-0.201,-0.2071,-0.2066,-0.2049,-0.1984,-0.1969,-0.1956,-0.2129,-0.2129,-0.213,0,0,-0.2397,-0.239,-0.2353,-0.2332,-0.2301,-0.2289,-0.2281,-0.2254,-0.2237,-0.2188,-0.2188,-0.2155,-0.2109,-0.2078,-0.2058,-0.1988,-0.198,-0.1989,-0.1936,-0.1872,-0.1859,-0.1847,-0.1769,-0.175,-0.198,-0.198,-0.198,0,-0.2383,-0.234,-0.2335,-0.2292,-0.2268,-0.2274,-0.2232,-0.2206,-0.2167,-0.2147,-0.2164,-0.2085,-0.207,-0.1997,-0.1976,-0.1972,-0.1934,-0.1978,-0.1864,-0.1852,-0.184,-0.1763,-0.1743,-0.1978,-0.1978,-0.1979,-0.1979,0,-0.2314,-0.2277,-0.2248,-0.2202,-0.2174,-0.2137,-0.2116,-0.2088,-0.2081,-0.2064,-0.2007,-0.1985,-0.194,-0.1932,-0.1931,-0.1843,-0.1841,-0.1871,-0.1892,-0.1823,-0.1745,-0.1725,-0.1975,-0.1976,-0.1977,-0.1977,0,0,-0.2286,-0.2218,-0.2206,-0.2171,-0.2128,-0.2095,-0.2041,-0.1997,-0.1958,-0.1934,-0.1879,-0.1829,-0.1839,-0.1814,-0.1817,-0.176,-0.1646,-0.1778,-0.1776,-0.1709,-0.1488,-0.1382,-0.1349,-0.1667,-0.1663,-0.1661,-0.1462,0,-0.2235,-0.2147,-0.2129,-0.2044,-0.1999,-0.1988,-0.1937,-0.1897,-0.1876,-0.1825,-0.1805,-0.1756,-0.1788,-0.177,-0.1718,-0.168,-0.1593,-0.1696,-0.1556,-0.1551,-0.1472,-0.1322,-0.1343,-0.1158,-0.1442,-0.1439,-0.1436,0,-0.2172,-0.2122,-0.2033,-0.1965,-0.1946,-0.1894,-0.1826,-0.1783,-0.1727,-0.1716,-0.1678,-0.1676,-0.16,-0.1639,-0.1507,-0.1577,-0.151,-0.1473,-0.1466,-0.136,-0.1405,-0.1274,-0.1111,-0.1402,-0.1405,-0.1408,-0.141,0,-0.2137,-0.2054,-0.1982,-0.1953,-0.1877,-0.1831,-0.1794,-0.1738,-0.1697,-0.164,-0.161,-0.1554,-0.1505,-0.1438,-0.1381,-0.1433,-0.1227,-0.1293,-0.1117,-0.111,-0.1091,-0.1086,-0.1145,-0.1145,-0.1146,-0.1146,-0.1147,0,-0.208,-0.2016,-0.1953,-0.1902,-0.1815,-0.1783,-0.1694,-0.1662,-0.1606,-0.155,-0.1547,-0.1503,-0.1452,-0.1358,-0.1318,-0.1136,-0.1167,-0.1048,-0.1028,-0.1077,-0.1073,-0.1275,-0.1293,-0.1139,-0.1141,-0.1142,-0.1143,0,-0.2016,-0.1985,-0.1889,-0.181,-0.1783,-0.1709,-0.163,-0.1581,-0.1541,-0.1466,-0.1446,-0.1411,-0.1295,-0.1218,-0.1085,-0.1017,-0.089,-0.0813,-0.0859,-0.0845,-0.083,-0.0848,-0.0574,-0.0568,-0.0563,-0.0559,-0.0556,0,-0.1958,-0.1902,-0.1812,-0.1763,-0.1711,-0.1623,-0.1576,-0.1538,-0.15,-0.1425,-0.1393,-0.1267,-0.1202,-0.0952,-0.0784,-0.0599,-0.0715,-0.051,-0.0591,-0.075,-0.076,-0.0786,-0.0811,-0.0559,-0.0556,-0.0553,-0.0551,0,-0.1836,-0.1811,-0.1744,-0.1652,-0.1586,-0.1533,-0.1469,-0.1442,-0.1407,-0.1367,-0.1318,-0.126,-0.099,-0.0804,-0.052,-0.0448,-0.0547,-0.0443,-0.0572,-0.0697,-0.0718,-0.0734,-0.0762,-0.0528,-0.053,-0.0532,-0.0533,-0.0534,-0.1736,-0.1678,-0.1603,-0.1506,-0.1455,-0.1424,-0.1363,-0.1351,-0.1304,-0.1209,-0.1225,-0.1067,-0.0932,-0.0474,-0.0371,-0.023,-0.0249,-0.0286,-0.0302,-0.0319,-0.0349,-0.0359,-0.0107,-0.0106,-0.0106,-0.0106,-0.0106,0,-0.1591,-0.1537,-0.1461,-0.136,-0.1293,-0.1293,-0.1265,-0.1232,-0.1177,-0.1081,-0.1003,-0.0775,-0.0604,-0.0454,-0.0173,-0.0058,-0.0143,-0.0102,-0.0274,-0.0295,-0.0314,-0.0353,-0.0106,-0.0106,-0.0106,-0.0106,0,0,-0.151,-0.1401,-0.1373,-0.1207,-0.1144,-0.1045,-0.1023,-0.1031,-0.0957,-0.0813,-0.0657,-0.0584,-0.0467,-0.0298,-0.0229,-0.0137,-0.0235,-0.0134,-0.0139,-0.0368,-0.0388,-0.0417,-0.0497,0,0,0,0,0]},{"header":{"parameterUnit":"m.s-1","parameterCategory":2,"la1":30.2991,"la2":30.254,"lo1":-89.0895,"lo2":-89.0444,"dy":0.0017,"dx":0.0017,"nx":28,"ny":28,"refTime":"2024-07-15T21:00:00:Z","depth":"2","parameterNumber":3,"parameterNumberName":"V-component_of_CURRENTS"},"data":[0,0,0,0,0,0,0,0,0,0,0,0,0,0,0,0,0,0,0,0,0,0,0,0,0,0,0,0,0,0,0,0,0,0,0,0,0,0,0,0,0,0,0,0,0,0,0,0,0,0,0,0,0,0,0,0,0,0,0.0752,0.0753,0,0.0861,0.0862,0.0863,0.0876,0.0875,0.0875,0.0874,0.102,0.1025,0.1029,0,0,0,0,0,0,0,0,0,0,0,0,0,0.0592,0.0594,0.0752,0.0754,0.0755,0.0861,0.0862,0.0864,0.0876,0.0875,0.0874,0.0873,0.1019,0.1024,0.103,0,0,0,0,0,0,0,0,0,0,0,0,0,0.0675,0.0595,0.0752,0.0776,0.078,0.0861,0.0862,0.0864,0.0877,0.0875,0.0874,0.0873,0.1017,0.1024,0.1031,0.1099,0,0,0.1052,0.1055,0,0,0,0,0,0,0,0,0.067,0.068,0.0771,0.0775,0.0779,0.0856,0.086,0.0945,0.0877,0.0837,0.0874,0.0872,0.0971,0.0982,0.1001,0.1106,0.1113,0.1053,0.1057,0.106,0.1062,0,0,0,0,0,0,0,0.0664,0.0676,0.0793,0.0773,0.0778,0.0795,0.0804,0.0876,0.0909,0.084,0.0842,0.0859,0.0973,0.0994,0.1005,0.1115,0.1053,0.1059,0.1063,0.1066,0.119,0.1189,0,0,0,0,0,0,0.0656,0.0671,0.0789,0.0796,0.0723,0.0799,0.0809,0.083,0.0907,0.0918,0.086,0.0859,0.0983,0.0997,0.101,0.1028,0.106,0.1067,0.1071,0.119,0.1189,0.1188,0,0,0,0,0,0,0.0652,0.0666,0.0785,0.0737,0.0754,0.0803,0.0826,0.0833,0.0823,0.0922,0.0933,0.0839,0.0983,0.1,0.1048,0.1036,0.107,0.1076,0.1192,0.119,0.1189,0.1107,0,0,0,0,0,0,0.0647,0.0664,0.0665,0.0737,0.0756,0.0812,0.0828,0.0836,0.0839,0.0838,0.0909,0.0923,0.0983,0.1037,0.1055,0.1046,0.1082,0.1193,0.1191,0.1189,0.1111,0.1103,0.1096,0,0,0,0,0,0.0641,0.0645,0.0664,0.0678,0.0761,0.0812,0.0822,0.0851,0.0839,0.0835,0.0879,0.0919,0.1037,0.1043,0.1064,0.1057,0.1194,0.1191,0.1189,0.1114,0.1105,0.1097,0,0,0,0,0,0,0.0568,0.0649,0.0671,0.0698,0.0743,0.0814,0.0812,0.083,0.0861,0.0847,0.0925,0.0943,0.0973,0.1026,0.1029,0.1083,0.1116,0.1118,0.1051,0.1043,0.1036,0.0999,0.1087,0,0,0,0,0,0.0558,0.0577,0.0659,0.067,0.0692,0.0744,0.0762,0.0781,0.0826,0.0835,0.0883,0.0933,0.0988,0.1021,0.1072,0.112,0.114,0.1122,0.1114,0.1108,0.1089,0.115,0.1147,0.1181,0.1181,0.1182,0,0,0.0529,0.0576,0.0585,0.0655,0.0688,0.0719,0.0748,0.0762,0.0781,0.0851,0.0867,0.0908,0.0991,0.1031,0.105,0.1073,0.1094,0.1105,0.1099,0.1084,0.1147,0.1144,0.1141,0.118,0.118,0.1181,0,0,0.0487,0.0525,0.0532,0.0571,0.0622,0.0668,0.0662,0.0717,0.073,0.0769,0.081,0.0844,0.0927,0.0985,0.1028,0.1015,0.1047,0.1014,0.0965,0.1024,0.1021,0.102,0.0981,0.0977,0.1021,0.1021,0.1021,0,0.0448,0.0483,0.0537,0.0558,0.0587,0.0638,0.0653,0.0686,0.0742,0.0761,0.0757,0.0853,0.0913,0.0982,0.0958,0.1001,0.0997,0.0996,0.1015,0.1014,0.1014,0.0975,0.0972,0.1017,0.1017,0.1018,0.1018,0,0.0427,0.0452,0.0453,0.0508,0.054,0.0556,0.0624,0.0636,0.0653,0.0697,0.0734,0.0805,0.0863,0.088,0.0914,0.0938,0.0916,0.0991,0.1037,0.1006,0.0965,0.0963,0.1011,0.1012,0.1013,0.1014,0,0,0.0351,0.0427,0.0424,0.045,0.0517,0.0544,0.057,0.0632,0.065,0.0681,0.0709,0.0771,0.0781,0.0826,0.0871,0.0904,0.0876,0.092,0.0925,0.0876,0.0916,0.0841,0.0831,0.0953,0.0954,0.0954,0.0865,0,0.0319,0.0351,0.0399,0.0422,0.0452,0.051,0.054,0.059,0.0636,0.0672,0.0729,0.0767,0.0777,0.0785,0.0819,0.0878,0.0875,0.0887,0.0956,0.0956,0.0894,0.083,0.0892,0.0815,0.0864,0.0863,0.0863,0,0.0286,0.0321,0.0339,0.0408,0.0423,0.0431,0.0492,0.0528,0.06,0.0628,0.0666,0.0715,0.0745,0.0767,0.0818,0.0817,0.083,0.0866,0.0866,0.0827,0.088,0.0867,0.081,0.086,0.0861,0.0861,0.0861,0,0.0224,0.0279,0.0293,0.0315,0.0395,0.0392,0.0421,0.0493,0.0533,0.0583,0.0609,0.0667,0.069,0.0735,0.0765,0.0793,0.0806,0.089,0.0822,0.0814,0.0894,0.0893,0.0909,0.091,0.091,0.091,0.091,0,0.0191,0.0199,0.0253,0.0263,0.0273,0.0331,0.0347,0.0388,0.0451,0.0499,0.056,0.0595,0.0684,0.0713,0.074,0.0733,0.079,0.0769,0.0794,0.0857,0.0854,0.0942,0.0947,0.0907,0.0907,0.0908,0.0909,0,0.0123,0.0164,0.0184,0.0236,0.0244,0.0239,0.0291,0.0322,0.0369,0.0427,0.0434,0.053,0.0547,0.0601,0.0668,0.0694,0.0714,0.0698,0.0697,0.0723,0.0677,0.0679,0.0619,0.0615,0.0613,0.061,0.0608,0,0.0096,0.0097,0.0139,0.015,0.0161,0.0171,0.0193,0.0255,0.0301,0.0391,0.0419,0.0447,0.0457,0.0475,0.0553,0.0553,0.0596,0.0596,0.0683,0.062,0.0651,0.0657,0.0662,0.0734,0.0734,0.0733,0.0733,0,0.0045,0.0047,0.0068,0.0087,0.0096,0.0138,0.0166,0.019,0.0278,0.0317,0.0364,0.0361,0.0391,0.0449,0.0441,0.0465,0.0604,0.0579,0.0567,0.0786,0.072,0.0753,0.0757,0.0727,0.0728,0.0728,0.0728,0.0729,-0.0007,-0.0007,0.0016,0.0032,0.0059,0.0102,0.0131,0.0177,0.0222,0.0285,0.0286,0.0311,0.0346,0.0371,0.0393,0.0487,0.0505,0.0573,0.058,0.0587,0.0604,0.0537,0.0506,0.0505,0.0505,0.0504,0.0504,0,-0.0046,-0.0036,-0.0026,0.0011,0.0039,0.0065,0.0133,0.0162,0.0202,0.0239,0.0236,0.0229,0.03,0.0366,0.0535,0.0545,0.0588,0.053,0.0645,0.0651,0.0656,0.0682,0.0601,0.0601,0.0601,0.06,0,0,-0.006,-0.0058,-0.0044,-0.0011,0.0016,0.0077,0.012,0.0138,0.0184,0.0146,0.0201,0.02,0.0322,0.0413,0.0465,0.0585,0.0588,0.0561,0.0493,0.0631,0.0634,0.0703,0.075,0,0,0,0,0]}],[{"header":{"parameterUnit":"m.s-1","parameterCategory":2,"la1":30.2991,"la2":30.254,"lo1":-89.0895,"lo2":-89.0444,"dy":0.0017,"dx":0.0017,"nx":28,"ny":28,"refTime":"2024-07-15T21:00:00:Z","depth":"4","parameterNumber":2,"parameterNumberName":"U-component_of_CURRENTS"},"data":[0,0,0,0,0,0,0,0,0,0,0,0,0,0,0,0,0,0,0,0,0,0,0,0,0,0,0,0,0,0,0,0,0,0,0,0,0,0,0,0,0,0,0,0,0,0,0,0,0,0,0,0,0,0,0,0,0,0,-0.0838,-0.0838,0,-0.0847,-0.0847,-0.0846,-0.0845,-0.0845,-0.0845,-0.0845,-0.0937,-0.0939,-0.0942,0,0,0,0,0,0,0,0,0,0,0,0,0,-0.0773,-0.0775,-0.0838,-0.0838,-0.0839,-0.0847,-0.0847,-0.0846,-0.0845,-0.0845,-0.0845,-0.0845,-0.0936,-0.0939,-0.0942,0,0,0,0,0,0,0,0,0,0,0,0,0,-0.079,-0.0775,-0.0838,-0.0842,-0.0842,-0.0847,-0.0847,-0.0846,-0.0845,-0.0845,-0.0845,-0.0846,-0.0936,-0.0939,-0.0942,-0.0957,0,0,-0.0953,-0.0954,0,0,0,0,0,0,0,0,-0.0789,-0.0792,-0.0841,-0.0842,-0.0842,-0.0848,-0.0858,-0.0889,-0.0845,-0.084,-0.0845,-0.0846,-0.0918,-0.0922,-0.0917,-0.0962,-0.0966,-0.0953,-0.0955,-0.0956,-0.0957,0,0,0,0,0,0,0,-0.0788,-0.0792,-0.0838,-0.0841,-0.0842,-0.0828,-0.083,-0.0863,-0.0876,-0.084,-0.0841,-0.0848,-0.0918,-0.0913,-0.0919,-0.0967,-0.0953,-0.0956,-0.0958,-0.0959,-0.1068,-0.1068,0,0,0,0,0,0,-0.0797,-0.0791,-0.0837,-0.0838,-0.082,-0.0829,-0.0832,-0.0843,-0.0873,-0.0879,-0.0848,-0.0848,-0.0907,-0.0915,-0.0923,-0.0988,-0.0956,-0.096,-0.0962,-0.1067,-0.1068,-0.1069,0,0,0,0,0,0,-0.0796,-0.0801,-0.0837,-0.0817,-0.0821,-0.0831,-0.0843,-0.0843,-0.0869,-0.0879,-0.0885,-0.0877,-0.0908,-0.0918,-0.0977,-0.099,-0.0961,-0.0964,-0.1066,-0.1067,-0.1068,-0.109,0,0,0,0,0,0,-0.0794,-0.0801,-0.0809,-0.0818,-0.0823,-0.0852,-0.0843,-0.0843,-0.0873,-0.0874,-0.0906,-0.0912,-0.0909,-0.0972,-0.098,-0.0994,-0.0967,-0.1065,-0.1066,-0.1068,-0.1089,-0.1092,-0.1095,0,0,0,0,0,-0.0792,-0.0796,-0.0809,-0.0815,-0.0835,-0.0853,-0.0854,-0.0858,-0.0874,-0.0883,-0.0915,-0.0913,-0.0986,-0.0976,-0.0985,-0.1001,-0.1064,-0.1066,-0.1068,-0.1087,-0.1091,-0.1095,0,0,0,0,0,0,-0.0771,-0.0797,-0.0812,-0.0825,-0.0848,-0.0854,-0.0863,-0.088,-0.091,-0.0921,-0.0937,-0.0946,-0.0994,-0.1003,-0.0991,-0.1035,-0.102,-0.1024,-0.1032,-0.1036,-0.1039,-0.1038,-0.097,0,0,0,0,0,-0.0774,-0.0782,-0.0813,-0.0824,-0.0844,-0.0866,-0.0876,-0.0886,-0.0913,-0.0926,-0.0946,-0.0973,-0.1003,-0.1027,-0.1043,-0.1086,-0.1081,-0.1098,-0.1101,-0.1104,-0.1109,-0.1116,-0.112,-0.1075,-0.1075,-0.1075,0,0,-0.0771,-0.0784,-0.0791,-0.0821,-0.0841,-0.0861,-0.0872,-0.0899,-0.0914,-0.0935,-0.0966,-0.099,-0.1018,-0.1049,-0.1071,-0.1064,-0.1113,-0.1106,-0.1108,-0.1112,-0.1119,-0.1123,-0.1127,-0.1076,-0.1076,-0.1076,0,0,-0.076,-0.0788,-0.0794,-0.0818,-0.0854,-0.0868,-0.089,-0.0917,-0.0932,-0.0978,-0.0986,-0.1031,-0.1074,-0.1084,-0.1103,-0.1144,-0.1129,-0.1144,-0.1167,-0.1174,-0.1177,-0.118,-0.1172,-0.1175,-0.1148,-0.1148,-0.1148,0,-0.0755,-0.0773,-0.0799,-0.0816,-0.0837,-0.0882,-0.0904,-0.0923,-0.096,-0.0975,-0.0994,-0.1063,-0.109,-0.1133,-0.1142,-0.1152,-0.1145,-0.1149,-0.1177,-0.118,-0.1183,-0.1174,-0.1177,-0.1149,-0.1149,-0.1149,-0.1149,0,-0.0753,-0.0775,-0.0786,-0.0821,-0.0845,-0.0874,-0.0914,-0.0936,-0.0975,-0.0993,-0.1052,-0.1095,-0.1136,-0.1149,-0.1167,-0.1198,-0.1182,-0.1178,-0.1165,-0.1189,-0.1178,-0.118,-0.1151,-0.1151,-0.115,-0.115,0,0,-0.0727,-0.0775,-0.0782,-0.0797,-0.0857,-0.087,-0.0909,-0.0948,-0.0971,-0.1023,-0.1052,-0.1127,-0.1156,-0.1179,-0.1204,-0.1221,-0.1241,-0.1213,-0.1212,-0.12,-0.1243,-0.1086,-0.1072,-0.1237,-0.1237,-0.1238,-0.1224,0,-0.0724,-0.0747,-0.0777,-0.0806,-0.0829,-0.0876,-0.0901,-0.0938,-0.0984,-0.1013,-0.1079,-0.1129,-0.1166,-0.1202,-0.1225,-0.1238,-0.1248,-0.1244,-0.1225,-0.1224,-0.1078,-0.107,-0.124,-0.1225,-0.1226,-0.1226,-0.1226,0,-0.0718,-0.0732,-0.0765,-0.0796,-0.0813,-0.0832,-0.0881,-0.0911,-0.0965,-0.1008,-0.1076,-0.1123,-0.1188,-0.1207,-0.1256,-0.125,-0.1251,-0.1257,-0.1256,-0.1103,-0.107,-0.1198,-0.1229,-0.1229,-0.1229,-0.1229,-0.1228,0,-0.0682,-0.072,-0.0744,-0.0761,-0.0808,-0.0823,-0.0849,-0.0905,-0.0929,-0.1013,-0.1033,-0.1127,-0.1155,-0.1205,-0.123,-0.1252,-0.1239,-0.1269,-0.1127,-0.1116,-0.1255,-0.1252,-0.1283,-0.1283,-0.1283,-0.1283,-0.1283,0,-0.0664,-0.0678,-0.0725,-0.0736,-0.0746,-0.0794,-0.0822,-0.0858,-0.0914,-0.0924,-0.1029,-0.1036,-0.1152,-0.1159,-0.1208,-0.1149,-0.1225,-0.112,-0.1097,-0.1263,-0.1262,-0.1255,-0.1252,-0.1282,-0.1282,-0.1282,-0.1282,0,-0.0623,-0.0663,-0.0679,-0.0723,-0.0731,-0.0739,-0.0787,-0.08,-0.0865,-0.0877,-0.0908,-0.0963,-0.0969,-0.1038,-0.1084,-0.1074,-0.1076,-0.103,-0.118,-0.1167,-0.0964,-0.0963,-0.0901,-0.0895,-0.0891,-0.0887,-0.0883,0,-0.0605,-0.0616,-0.0656,-0.0661,-0.068,-0.0704,-0.0712,-0.0775,-0.0786,-0.0809,-0.0789,-0.08,-0.0832,-0.0778,-0.0858,-0.0908,-0.0902,-0.0907,-0.097,-0.0939,-0.0923,-0.093,-0.0935,-0.0875,-0.0874,-0.0873,-0.0871,0,-0.0568,-0.0593,-0.0606,-0.0613,-0.0619,-0.062,-0.0631,-0.0625,-0.0676,-0.0728,-0.0678,-0.0682,-0.0632,-0.0681,-0.0686,-0.0735,-0.0924,-0.0857,-0.087,-0.0929,-0.0907,-0.0898,-0.0909,-0.0854,-0.0857,-0.0858,-0.0859,0,-0.0543,-0.0536,-0.0558,-0.0555,-0.055,-0.0513,-0.0541,-0.0531,-0.0543,-0.0579,-0.0543,-0.0557,-0.0597,-0.058,-0.0599,-0.0612,-0.0638,-0.0672,-0.0695,-0.0715,-0.0658,-0.0602,-0.0423,0,0,0,0,0,-0.0513,-0.0494,-0.0493,-0.0469,-0.0457,-0.045,-0.0466,-0.0501,-0.0531,-0.0478,-0.0521,-0.0489,-0.0476,-0.0483,-0.0466,-0.0508,-0.0638,-0.0484,-0.0689,-0.076,-0.078,-0.073,0,0,0,0,0,0,-0.0487,-0.0485,-0.0473,-0.0391,-0.0355,-0.0325,-0.033,-0.0362,-0.0351,-0.0398,-0.0401,-0.0444,-0.0449,-0.0474,-0.0447,-0.0452,-0.057,-0.0507,-0.0505,-0.0749,-0.0767,-0.0783,-0.0738,0,0,0,0,0]},{"header":{"parameterUnit":"m.s-1","parameterCategory":2,"la1":30.2991,"la2":30.254,"lo1":-89.0895,"lo2":-89.0444,"dy":0.0017,"dx":0.0017,"nx":28,"ny":28,"refTime":"2024-07-15T21:00:00:Z","depth":"4","parameterNumber":3,"parameterNumberName":"V-component_of_CURRENTS"},"data":[0,0,0,0,0,0,0,0,0,0,0,0,0,0,0,0,0,0,0,0,0,0,0,0,0,0,0,0,0,0,0,0,0,0,0,0,0,0,0,0,0,0,0,0,0,0,0,0,0,0,0,0,0,0,0,0,0,0,-0.0311,-0.0311,0,-0.0351,-0.0352,-0.0353,-0.0362,-0.0361,-0.036,-0.036,-0.0324,-0.0324,-0.0324,0,0,0,0,0,0,0,0,0,0,0,0,0,-0.0293,-0.0293,-0.0311,-0.0311,-0.0311,-0.0351,-0.0353,-0.0354,-0.0363,-0.0361,-0.036,-0.0359,-0.0324,-0.0324,-0.0324,0,0,0,0,0,0,0,0,0,0,0,0,0,-0.032,-0.0293,-0.0311,-0.0315,-0.0315,-0.0351,-0.0353,-0.0354,-0.0363,-0.0361,-0.036,-0.0359,-0.0324,-0.0324,-0.0324,-0.0352,0,0,-0.0324,-0.0324,0,0,0,0,0,0,0,0,-0.0319,-0.0322,-0.0315,-0.0315,-0.0315,-0.0344,-0.0333,-0.0347,-0.0363,-0.0352,-0.036,-0.0358,-0.032,-0.032,-0.0342,-0.035,-0.0349,-0.0324,-0.0324,-0.0324,-0.0324,0,0,0,0,0,0,0,-0.0317,-0.032,-0.0334,-0.0314,-0.0314,-0.0331,-0.0334,-0.0337,-0.0348,-0.0353,-0.0352,-0.0346,-0.0321,-0.0343,-0.0341,-0.0348,-0.0324,-0.0324,-0.0324,-0.0323,-0.0374,-0.0375,0,0,0,0,0,0,-0.0296,-0.0319,-0.0333,-0.0335,-0.0305,-0.0332,-0.0335,-0.0342,-0.0349,-0.0348,-0.0347,-0.0346,-0.0343,-0.0341,-0.034,-0.0372,-0.0324,-0.0323,-0.0323,-0.0372,-0.0374,-0.0375,0,0,0,0,0,0,-0.0296,-0.0298,-0.0331,-0.0321,-0.0325,-0.0333,-0.0341,-0.0343,-0.0362,-0.0344,-0.0342,-0.0361,-0.0342,-0.034,-0.0348,-0.037,-0.0323,-0.0323,-0.0371,-0.0373,-0.0375,-0.0436,0,0,0,0,0,0,-0.0296,-0.0298,-0.0306,-0.032,-0.0325,-0.0352,-0.0341,-0.0345,-0.0357,-0.0356,-0.0356,-0.0351,-0.0341,-0.0348,-0.0348,-0.0369,-0.0323,-0.0369,-0.0372,-0.0374,-0.0432,-0.044,-0.0447,0,0,0,0,0,-0.0295,-0.0311,-0.0307,-0.0308,-0.0333,-0.0352,-0.0358,-0.0362,-0.0359,-0.0374,-0.0375,-0.0351,-0.0364,-0.035,-0.0348,-0.037,-0.0368,-0.0371,-0.0374,-0.0429,-0.0439,-0.0447,0,0,0,0,0,0,-0.0307,-0.0313,-0.0308,-0.0324,-0.0333,-0.035,-0.0364,-0.0368,-0.0386,-0.0385,-0.037,-0.0367,-0.0388,-0.0371,-0.0355,-0.0394,-0.0362,-0.0365,-0.0405,-0.0413,-0.042,-0.0413,-0.0323,0,0,0,0,0,-0.0311,-0.0326,-0.0328,-0.0342,-0.0345,-0.0357,-0.0368,-0.0373,-0.0382,-0.0391,-0.039,-0.0391,-0.0405,-0.0399,-0.041,-0.0425,-0.0382,-0.0438,-0.0446,-0.0452,-0.0446,-0.0429,-0.0434,-0.0386,-0.0386,-0.0386,0,0,-0.032,-0.0323,-0.0332,-0.0346,-0.0355,-0.0376,-0.0363,-0.0382,-0.0407,-0.0382,-0.0419,-0.0421,-0.0418,-0.0444,-0.045,-0.0426,-0.0437,-0.0456,-0.0461,-0.0451,-0.0433,-0.0437,-0.0441,-0.0388,-0.0387,-0.0387,0,0,-0.034,-0.0347,-0.0362,-0.0374,-0.0382,-0.0394,-0.0398,-0.0418,-0.0434,-0.0467,-0.0461,-0.0473,-0.049,-0.0494,-0.0497,-0.0547,-0.0485,-0.0549,-0.0568,-0.0552,-0.0555,-0.0558,-0.0477,-0.0472,-0.0541,-0.0542,-0.0542,0,-0.0345,-0.0368,-0.0371,-0.0387,-0.0402,-0.0402,-0.0427,-0.0451,-0.0474,-0.0492,-0.0482,-0.0522,-0.0518,-0.0545,-0.0563,-0.0563,-0.0518,-0.0535,-0.056,-0.0562,-0.0563,-0.048,-0.0473,-0.0545,-0.0545,-0.0544,-0.0544,0,-0.0376,-0.0396,-0.0407,-0.043,-0.0451,-0.0474,-0.0494,-0.052,-0.0537,-0.0556,-0.0594,-0.0593,-0.0611,-0.0616,-0.0603,-0.0618,-0.0568,-0.0579,-0.0534,-0.0571,-0.0481,-0.0473,-0.055,-0.0549,-0.0548,-0.0547,0,0,-0.0381,-0.042,-0.0424,-0.0445,-0.0478,-0.0498,-0.0543,-0.0584,-0.0615,-0.0635,-0.0673,-0.0696,-0.0687,-0.0689,-0.0674,-0.065,-0.0614,-0.0613,-0.0611,-0.0524,-0.0523,-0.0489,-0.0476,-0.0629,-0.0629,-0.0629,-0.0442,0,-0.0401,-0.044,-0.0462,-0.0513,-0.0536,-0.0562,-0.0607,-0.0645,-0.0675,-0.0712,-0.0713,-0.0747,-0.0718,-0.0726,-0.0702,-0.0659,-0.0601,-0.066,-0.0507,-0.0501,-0.0461,-0.047,-0.0628,-0.0436,-0.0434,-0.0433,-0.0432,0,-0.0422,-0.0447,-0.0497,-0.0556,-0.057,-0.0607,-0.0675,-0.0713,-0.0761,-0.0788,-0.0807,-0.0807,-0.0794,-0.0766,-0.0669,-0.0706,-0.0609,-0.0551,-0.0543,-0.0486,-0.0455,-0.04,-0.0417,-0.0418,-0.0419,-0.042,-0.0421,0,-0.0421,-0.0475,-0.0519,-0.0539,-0.0603,-0.064,-0.0678,-0.0737,-0.0773,-0.083,-0.0852,-0.0848,-0.0839,-0.0755,-0.065,-0.0654,-0.0519,-0.0514,-0.0371,-0.0364,-0.042,-0.042,-0.0414,-0.0414,-0.0414,-0.0415,-0.0415,0,-0.0436,-0.0473,-0.0523,-0.0548,-0.0612,-0.0651,-0.0723,-0.0765,-0.0816,-0.0849,-0.0881,-0.088,-0.0838,-0.0766,-0.0654,-0.0492,-0.052,-0.036,-0.0327,-0.0445,-0.045,-0.0411,-0.0413,-0.0408,-0.0409,-0.0411,-0.0412,0,-0.0437,-0.0468,-0.0519,-0.0585,-0.0614,-0.0658,-0.0742,-0.0783,-0.0834,-0.087,-0.0886,-0.0895,-0.0804,-0.0726,-0.0582,-0.0488,-0.0349,-0.027,-0.0364,-0.0342,-0.0181,-0.0189,-0.0076,-0.0073,-0.0071,-0.0069,-0.0068,0,-0.0443,-0.0468,-0.0538,-0.0572,-0.0608,-0.0678,-0.0727,-0.0792,-0.0819,-0.0854,-0.0853,-0.0809,-0.0791,-0.0559,-0.0485,-0.0277,-0.0245,-0.0155,-0.0196,-0.0173,-0.0152,-0.0164,-0.0174,-0.0065,-0.0064,-0.0064,-0.0063,0,-0.0454,-0.0477,-0.0516,-0.0576,-0.063,-0.0694,-0.0751,-0.0763,-0.0814,-0.0854,-0.0802,-0.0727,-0.0621,-0.0506,-0.037,-0.0218,-0.0227,-0.0132,-0.0135,-0.0172,-0.0159,-0.0143,-0.0155,-0.0056,-0.0057,-0.0058,-0.0058,0,-0.046,-0.0484,-0.0526,-0.0578,-0.0642,-0.0683,-0.0722,-0.0732,-0.0757,-0.0772,-0.0738,-0.067,-0.0644,-0.0467,-0.0334,-0.0214,-0.016,-0.0104,-0.0108,-0.0114,-0.0211,-0.0205,-0.0077,0,0,0,0,0,-0.046,-0.0481,-0.0527,-0.058,-0.0637,-0.0674,-0.0726,-0.0752,-0.0775,-0.0722,-0.0728,-0.0625,-0.0457,-0.0407,-0.0268,-0.0282,-0.0145,-0.0114,-0.0085,-0.0016,-0.0024,-0.0133,0,0,0,0,0,0,-0.0463,-0.05,-0.0515,-0.0564,-0.0599,-0.0663,-0.0693,-0.0713,-0.0676,-0.0685,-0.0599,-0.057,-0.0416,-0.0534,-0.0261,-0.0231,-0.0184,-0.0051,-0.0047,-0.0011,-0.0019,-0.0026,-0.014,0,0,0,0,0]}]]